Regional Weather Roundup
Issued by NWS

Home | Current Version | Previous Version | Graphics & Text | Print | Product List | Glossary On
Versions: 1 2 3 4 5 6 7 8 9 10 11 12 13 14 15 16 17 18 19 20 21 22 23 24 25 26 27 28 29 30 31 32 33 34 35 36 37 38 39 40 41 42 43 44 45 46 47 48 49 50
000
ASUS43 KLMK 292110
RWRKY
KENTUCKY REGIONAL WEATHER ROUNDUP
NATIONAL WEATHER SERVICE LOUISVILLE KY
500 PM EDT SAT APR 29 2017

NOTE "FAIR" INDICATES FEW OR NO CLOUDS BELOW 12,000 FEET
WITH NO SIGNIFICANT WEATHER AND/OR OBSTRUCTIONS TO VISIBILITY.

KYZ001>023-026-027-061>063-070>075-292200-
WESTERN AND SOUTH CENTRAL KENTUCKY

CITY           SKY/WX    TMP DP  RH WIND       PRES   REMARKS
PADUCAH        MOSUNNY   85  65  51 S15G31    29.84F
HENDERSON        N/A    N/A N/A N/A MISG        N/A
OWENSBORO      MOSUNNY   86  69  56 SE15      29.90F HX  90
HOPKINSVILLE   CLOUDY    87  67  50 S13       29.91F HX  90
BOWLING GREEN  MOSUNNY   89  68  49 S16       29.94F HX  93
GLASGOW        CLOUDY    87  65  48 S8        29.96S
$$

KYZ024-025-028>034-038-045-046-053-292200-
NORTH CENTRAL KENTUCKY

CITY           SKY/WX    TMP DP  RH WIND       PRES   REMARKS
LOUISVILLE/SDF CLOUDY    85  68  56 SE15      29.95F
LOUISVILLE/LOU SUNNY     85  68  56 SE8       29.96F
FORT KNOX      MOSUNNY   85  68  57 SE12      29.94F
$$

KYZ035>037-039>044-047>052-055>060-089>105-292200-
NORTHEAST KENTUCKY

CITY           SKY/WX    TMP DP  RH WIND       PRES   REMARKS
LEXINGTON      SUNNY     85  65  51 SE6       30.01F
COVINGTON      PTSUNNY   79  64  60 SE10      30.01F
FRANKFORT      CLOUDY    83  66  56 SE9       29.98F
$$

KYZ054-064>069-076>088-106>120-292200-
SOUTHEAST KENTUCKY

CITY           SKY/WX    TMP DP  RH WIND       PRES   REMARKS
JACKSON        CLOUDY    86  62  44 VRB3      30.04F
LONDON         CLOUDY    86  62  44 SE7       30.01F
SOMERSET       SUNNY     86  63  45 S8        30.00F
MIDDLESBORO    SUNNY     89  64  44 S9        30.03F HX  90
MONTICELLO     CLOUDY    86  67  52 SE6       30.01F
$$




USA.gov is the U.S. government's official web portal to all federal, state and local government web resources and services.